Year,Month,Day,Hour,Minute,Value (Times are PST for insolation in W/m^2)
2012,08,06,00,00,0.00
2012,08,06,00,01,0.00
2012,08,06,00,02,0.00
2012,08,06,00,03,0.00
2012,08,06,00,04,0.00
2012,08,06,00,05,0.00
2012,08,06,00,06,0.00
2012,08,06,00,07,0.00
2012,08,06,00,08,0.00
2012,08,06,00,09,0.00
2012,08,06,00,10,0.00
2012,08,06,00,11,0.00
2012,08,06,00,12,0.00
2012,08,06,00,13,0.00
2012,08,06,00,14,0.00
2012,08,06,00,15,0.00
2012,08,06,00,16,0.00
2012,08,06,00,17,0.00
2012,08,06,00,18,0.00
2012,08,06,00,19,0.00
2012,08,06,00,20,0.00
2012,08,06,00,21,0.00
2012,08,06,00,22,0.00
2012,08,06,00,23,0.00
2012,08,06,00,24,0.00
2012,08,06,00,25,0.00
2012,08,06,00,26,0.00
2012,08,06,00,27,0.00
2012,08,06,00,28,0.00
2012,08,06,00,29,0.00
2012,08,06,00,30,0.00
2012,08,06,00,31,0.00
2012,08,06,00,32,0.00
2012,08,06,00,33,0.00
2012,08,06,00,34,0.00
2012,08,06,00,35,0.00
2012,08,06,00,36,0.00
2012,08,06,00,37,0.00
2012,08,06,00,38,0.00
2012,08,06,00,39,0.00
2012,08,06,00,40,0.00
2012,08,06,00,41,0.00
2012,08,06,00,42,0.00
2012,08,06,00,43,0.00
2012,08,06,00,44,0.00
2012,08,06,00,45,0.00
2012,08,06,00,46,0.00
2012,08,06,00,47,0.00
2012,08,06,00,48,0.00
2012,08,06,00,49,0.00
2012,08,06,00,50,0.00
2012,08,06,00,51,0.00
2012,08,06,00,52,0.00
2012,08,06,00,53,0.00
2012,08,06,00,54,0.00
2012,08,06,00,55,0.00
2012,08,06,00,56,0.00
2012,08,06,00,57,0.00
2012,08,06,00,58,0.00
2012,08,06,00,59,0.00
2012,08,06,01,00,0.00
2012,08,06,01,01,0.00
2012,08,06,01,02,0.00
2012,08,06,01,03,0.00
2012,08,06,01,04,0.00
2012,08,06,01,05,0.00
2012,08,06,01,06,0.00
2012,08,06,01,07,0.00
2012,08,06,01,08,0.00
2012,08,06,01,09,0.00
2012,08,06,01,10,0.00
2012,08,06,01,11,0.00
2012,08,06,01,12,0.00
2012,08,06,01,13,0.00
2012,08,06,01,14,0.00
2012,08,06,01,15,0.00
2012,08,06,01,16,0.00
2012,08,06,01,17,0.00
2012,08,06,01,18,0.00
2012,08,06,01,19,0.00
2012,08,06,01,20,0.00
2012,08,06,01,21,0.00
2012,08,06,01,22,0.00
2012,08,06,01,23,0.00
2012,08,06,01,24,0.00
2012,08,06,01,25,0.00
2012,08,06,01,26,0.00
2012,08,06,01,27,0.00
2012,08,06,01,28,0.00
2012,08,06,01,29,0.00
2012,08,06,01,30,0.00
2012,08,06,01,31,0.00
2012,08,06,01,32,0.00
2012,08,06,01,33,0.00
2012,08,06,01,34,0.00
2012,08,06,01,35,0.00
2012,08,06,01,36,0.00
2012,08,06,01,37,0.00
2012,08,06,01,38,0.00
2012,08,06,01,39,0.00
2012,08,06,01,40,0.00
2012,08,06,01,41,0.00
2012,08,06,01,42,0.00
2012,08,06,01,43,0.00
2012,08,06,01,44,0.00
2012,08,06,01,45,0.00
2012,08,06,01,46,0.00
2012,08,06,01,47,0.00
2012,08,06,01,48,0.00
2012,08,06,01,49,0.00
2012,08,06,01,50,0.00
2012,08,06,01,51,0.00
2012,08,06,01,52,0.00
2012,08,06,01,53,0.00
2012,08,06,01,54,0.00
2012,08,06,01,55,0.00
2012,08,06,01,56,0.00
2012,08,06,01,57,0.00
2012,08,06,01,58,0.00
2012,08,06,01,59,0.00
2012,08,06,02,00,0.00
2012,08,06,02,01,0.00
2012,08,06,02,02,0.00
2012,08,06,02,03,0.00
2012,08,06,02,04,0.00
2012,08,06,02,05,0.00
2012,08,06,02,06,0.00
2012,08,06,02,07,0.00
2012,08,06,02,08,0.00
2012,08,06,02,09,0.00
2012,08,06,02,10,0.00
2012,08,06,02,11,0.00
2012,08,06,02,12,0.00
2012,08,06,02,13,0.00
2012,08,06,02,14,0.00
2012,08,06,02,15,0.00
2012,08,06,02,16,0.00
2012,08,06,02,17,0.00
2012,08,06,02,18,0.00
2012,08,06,02,19,0.00
2012,08,06,02,20,0.00
2012,08,06,02,21,0.00
2012,08,06,02,22,0.00
2012,08,06,02,23,0.00
2012,08,06,02,24,0.00
2012,08,06,02,25,0.00
2012,08,06,02,26,0.00
2012,08,06,02,27,0.00
2012,08,06,02,28,0.00
2012,08,06,02,29,0.00
2012,08,06,02,30,0.00
2012,08,06,02,31,0.00
2012,08,06,02,32,0.00
2012,08,06,02,33,0.00
2012,08,06,02,34,0.00
2012,08,06,02,35,0.00
2012,08,06,02,36,0.00
2012,08,06,02,37,0.00
2012,08,06,02,38,0.00
2012,08,06,02,39,0.00
2012,08,06,02,40,0.00
2012,08,06,02,41,0.00
2012,08,06,02,42,0.00
2012,08,06,02,43,0.00
2012,08,06,02,44,0.00
2012,08,06,02,45,0.00
2012,08,06,02,46,0.00
2012,08,06,02,47,0.00
2012,08,06,02,48,0.00
2012,08,06,02,49,0.00
2012,08,06,02,50,0.00
2012,08,06,02,51,0.00
2012,08,06,02,52,0.00
2012,08,06,02,53,0.00
2012,08,06,02,54,0.00
2012,08,06,02,55,0.00
2012,08,06,02,56,0.00
2012,08,06,02,57,0.00
2012,08,06,02,58,0.00
2012,08,06,02,59,0.00
2012,08,06,03,00,0.00
2012,08,06,03,01,0.00
2012,08,06,03,02,0.00
2012,08,06,03,03,0.00
2012,08,06,03,04,0.00
2012,08,06,03,05,0.00
2012,08,06,03,06,0.00
2012,08,06,03,07,0.00
2012,08,06,03,08,0.00
2012,08,06,03,09,0.00
2012,08,06,03,10,0.00
2012,08,06,03,11,0.00
2012,08,06,03,12,0.00
2012,08,06,03,13,0.00
2012,08,06,03,14,0.00
2012,08,06,03,15,0.00
2012,08,06,03,16,0.00
2012,08,06,03,17,0.00
2012,08,06,03,18,0.00
2012,08,06,03,19,0.00
2012,08,06,03,20,0.00
2012,08,06,03,21,0.00
2012,08,06,03,22,0.00
2012,08,06,03,23,0.00
2012,08,06,03,24,0.00
2012,08,06,03,25,0.00
2012,08,06,03,26,0.00
2012,08,06,03,27,0.00
2012,08,06,03,28,0.00
2012,08,06,03,29,0.00
2012,08,06,03,30,0.00
2012,08,06,03,31,0.00
2012,08,06,03,32,0.00
2012,08,06,03,33,0.00
2012,08,06,03,34,0.00
2012,08,06,03,35,0.00
2012,08,06,03,36,0.00
2012,08,06,03,37,0.00
2012,08,06,03,38,0.00
2012,08,06,03,39,0.00
2012,08,06,03,40,0.00
2012,08,06,03,41,0.00
2012,08,06,03,42,0.00
2012,08,06,03,43,0.00
2012,08,06,03,44,0.00
2012,08,06,03,45,0.00
2012,08,06,03,46,0.00
2012,08,06,03,47,0.00
2012,08,06,03,48,0.00
2012,08,06,03,49,0.00
2012,08,06,03,50,0.00
2012,08,06,03,51,0.00
2012,08,06,03,52,0.00
2012,08,06,03,53,0.00
2012,08,06,03,54,0.00
2012,08,06,03,55,0.00
2012,08,06,03,56,0.00
2012,08,06,03,57,0.00
2012,08,06,03,58,0.00
2012,08,06,03,59,0.00
2012,08,06,04,00,0.00
2012,08,06,04,01,0.00
2012,08,06,04,02,0.00
2012,08,06,04,03,0.00
2012,08,06,04,04,0.00
2012,08,06,04,05,0.00
2012,08,06,04,06,0.00
2012,08,06,04,07,0.00
2012,08,06,04,08,0.00
2012,08,06,04,09,0.00
2012,08,06,04,10,0.00
2012,08,06,04,11,0.00
2012,08,06,04,12,0.00
2012,08,06,04,13,0.00
2012,08,06,04,14,0.00
2012,08,06,04,15,0.00
2012,08,06,04,16,0.00
2012,08,06,04,17,0.00
2012,08,06,04,18,0.00
2012,08,06,04,19,0.00
2012,08,06,04,20,0.00
2012,08,06,04,21,0.00
2012,08,06,04,22,0.00
2012,08,06,04,23,0.00
2012,08,06,04,24,0.00
2012,08,06,04,25,0.00
2012,08,06,04,26,0.00
2012,08,06,04,27,0.00
2012,08,06,04,28,0.00
2012,08,06,04,29,0.00
2012,08,06,04,30,0.00
2012,08,06,04,31,0.00
2012,08,06,04,32,0.00
2012,08,06,04,33,0.00
2012,08,06,04,34,0.00
2012,08,06,04,35,0.00
2012,08,06,04,36,0.00
2012,08,06,04,37,0.00
2012,08,06,04,38,0.00
2012,08,06,04,39,0.00
2012,08,06,04,40,0.00
2012,08,06,04,41,0.00
2012,08,06,04,42,0.00
2012,08,06,04,43,0.00
2012,08,06,04,44,0.00
2012,08,06,04,45,0.00
2012,08,06,04,46,0.00
2012,08,06,04,47,0.00
2012,08,06,04,48,0.00
2012,08,06,04,49,0.00
2012,08,06,04,50,0.00
2012,08,06,04,51,0.00
2012,08,06,04,52,0.00
2012,08,06,04,53,0.00
2012,08,06,04,54,0.00
2012,08,06,04,55,0.00
2012,08,06,04,56,0.00
2012,08,06,04,57,0.00
2012,08,06,04,58,0.00
2012,08,06,04,59,0.00
2012,08,06,05,00,0.00
2012,08,06,05,01,0.00
2012,08,06,05,02,0.00
2012,08,06,05,03,0.00
2012,08,06,05,04,0.00
2012,08,06,05,05,0.00
2012,08,06,05,06,0.00
2012,08,06,05,07,0.00
2012,08,06,05,08,0.00
2012,08,06,05,09,0.00
2012,08,06,05,10,0.00
2012,08,06,05,11,0.00
2012,08,06,05,12,0.00
2012,08,06,05,13,0.00
2012,08,06,05,14,0.00
2012,08,06,05,15,0.00
2012,08,06,05,16,0.00
2012,08,06,05,17,0.00
2012,08,06,05,18,0.00
2012,08,06,05,19,0.00
2012,08,06,05,20,0.00
2012,08,06,05,21,0.00
2012,08,06,05,22,0.00
2012,08,06,05,23,0.00
2012,08,06,05,24,0.00
2012,08,06,05,25,0.00
2012,08,06,05,26,0.00
2012,08,06,05,27,0.00
2012,08,06,05,28,0.00
2012,08,06,05,29,0.00
2012,08,06,05,30,0.00
2012,08,06,05,31,0.00
2012,08,06,05,32,0.00
2012,08,06,05,33,0.00
2012,08,06,05,34,0.00
2012,08,06,05,35,0.00
2012,08,06,05,36,0.00
2012,08,06,05,37,0.00
2012,08,06,05,38,0.00
2012,08,06,05,39,0.00
2012,08,06,05,40,0.00
2012,08,06,05,41,0.00
2012,08,06,05,42,0.00
2012,08,06,05,43,0.00
2012,08,06,05,44,0.00
2012,08,06,05,45,0.00
2012,08,06,05,46,0.00
2012,08,06,05,47,0.00
2012,08,06,05,48,0.00
2012,08,06,05,49,0.00
2012,08,06,05,50,0.00
2012,08,06,05,51,0.00
2012,08,06,05,52,0.00
2012,08,06,05,53,0.00
2012,08,06,05,54,0.00
2012,08,06,05,55,0.00
2012,08,06,05,56,0.00
2012,08,06,05,57,0.00
2012,08,06,05,58,0.00
2012,08,06,05,59,0.00
2012,08,06,06,00,0.00
2012,08,06,06,01,0.00
2012,08,06,06,02,0.00
2012,08,06,06,03,0.00
2012,08,06,06,04,0.00
2012,08,06,06,05,0.00
2012,08,06,06,06,0.00
2012,08,06,06,07,0.00
2012,08,06,06,08,0.00
2012,08,06,06,09,0.00
2012,08,06,06,10,0.00
2012,08,06,06,11,1.90
2012,08,06,06,12,5.00
2012,08,06,06,13,5.00
2012,08,06,06,14,5.00
2012,08,06,06,15,5.00
2012,08,06,06,16,5.00
2012,08,06,06,17,5.00
2012,08,06,06,18,5.00
2012,08,06,06,19,5.00
2012,08,06,06,20,5.00
2012,08,06,06,21,7.00
2012,08,06,06,22,7.00
2012,08,06,06,23,7.00
2012,08,06,06,24,7.00
2012,08,06,06,25,7.00
2012,08,06,06,26,7.00
2012,08,06,06,27,7.00
2012,08,06,06,28,7.70
2012,08,06,06,29,9.00
2012,08,06,06,30,9.00
2012,08,06,06,31,9.00
2012,08,06,06,32,9.10
2012,08,06,06,33,11.00
2012,08,06,06,34,11.00
2012,08,06,06,35,11.50
2012,08,06,06,36,12.00
2012,08,06,06,37,12.00
2012,08,06,06,38,12.20
2012,08,06,06,39,14.00
2012,08,06,06,40,14.00
2012,08,06,06,41,14.00
2012,08,06,06,42,15.20
2012,08,06,06,43,16.00
2012,08,06,06,44,16.20
2012,08,06,06,45,18.00
2012,08,06,06,46,18.00
2012,08,06,06,47,18.50
2012,08,06,06,48,19.00
2012,08,06,06,49,19.00
2012,08,06,06,50,19.20
2012,08,06,06,51,21.00
2012,08,06,06,52,21.00
2012,08,06,06,53,21.00
2012,08,06,06,54,22.40
2012,08,06,06,55,23.00
2012,08,06,06,56,23.30
2012,08,06,06,57,25.00
2012,08,06,06,58,25.00
2012,08,06,06,59,25.60
2012,08,06,07,00,26.00
2012,08,06,07,01,26.00
2012,08,06,07,02,28.00
2012,08,06,07,03,28.60
2012,08,06,07,04,30.00
2012,08,06,07,05,31.10
2012,08,06,07,06,32.00
2012,08,06,07,07,32.00
2012,08,06,07,08,33.00
2012,08,06,07,09,33.00
2012,08,06,07,10,33.00
2012,08,06,07,11,33.00
2012,08,06,07,12,34.60
2012,08,06,07,13,35.10
2012,08,06,07,14,37.00
2012,08,06,07,15,37.00
2012,08,06,07,16,37.00
2012,08,06,07,17,37.00
2012,08,06,07,18,37.00
2012,08,06,07,19,37.00
2012,08,06,07,20,37.00
2012,08,06,07,21,37.90
2012,08,06,07,22,39.00
2012,08,06,07,23,39.00
2012,08,06,07,24,39.00
2012,08,06,07,25,40.00
2012,08,06,07,26,40.50
2012,08,06,07,27,42.00
2012,08,06,07,28,43.00
2012,08,06,07,29,44.00
2012,08,06,07,30,44.00
2012,08,06,07,31,44.00
2012,08,06,07,32,44.00
2012,08,06,07,33,44.90
2012,08,06,07,34,46.00
2012,08,06,07,35,46.00
2012,08,06,07,36,46.00
2012,08,06,07,37,46.00
2012,08,06,07,38,46.00
2012,08,06,07,39,45.20
2012,08,06,07,40,44.00
2012,08,06,07,41,42.60
2012,08,06,07,42,42.00
2012,08,06,07,43,42.40
2012,08,06,07,44,44.60
2012,08,06,07,45,46.50
2012,08,06,07,46,47.00
2012,08,06,07,47,47.00
2012,08,06,07,48,48.80
2012,08,06,07,49,49.40
2012,08,06,07,50,51.70
2012,08,06,07,51,53.50
2012,08,06,07,52,54.00
2012,08,06,07,53,55.50
2012,08,06,07,54,57.80
2012,08,06,07,55,58.00
2012,08,06,07,56,58.00
2012,08,06,07,57,56.10
2012,08,06,07,58,52.00
2012,08,06,07,59,49.50
2012,08,06,08,00,50.90
2012,08,06,08,01,53.20
2012,08,06,08,02,54.00
2012,08,06,08,03,55.10
2012,08,06,08,04,56.00
2012,08,06,08,05,56.00
2012,08,06,08,06,57.90
2012,08,06,08,07,59.00
2012,08,06,08,08,63.20
2012,08,06,08,09,67.20
2012,08,06,08,10,70.90
2012,08,06,08,11,75.30
2012,08,06,08,12,81.20
2012,08,06,08,13,85.00
2012,08,06,08,14,89.30
2012,08,06,08,15,93.30
2012,08,06,08,16,97.00
2012,08,06,08,17,99.70
2012,08,06,08,18,104.40
2012,08,06,08,19,108.00
2012,08,06,08,20,112.20
2012,08,06,08,21,115.20
2012,08,06,08,22,118.90
2012,08,06,08,23,122.60
2012,08,06,08,24,125.40
2012,08,06,08,25,127.30
2012,08,06,08,26,129.00
2012,08,06,08,27,131.20
2012,08,06,08,28,132.00
2012,08,06,08,29,132.00
2012,08,06,08,30,132.00
2012,08,06,08,31,132.00
2012,08,06,08,32,133.00
2012,08,06,08,33,134.70
2012,08,06,08,34,136.50
2012,08,06,08,35,137.00
2012,08,06,08,36,137.00
2012,08,06,08,37,137.70
2012,08,06,08,38,140.50
2012,08,06,08,39,144.70
2012,08,06,08,40,146.00
2012,08,06,08,41,144.40
2012,08,06,08,42,145.50
2012,08,06,08,43,144.00
2012,08,06,08,44,142.40
2012,08,06,08,45,139.80
2012,08,06,08,46,137.40
2012,08,06,08,47,134.80
2012,08,06,08,48,131.50
2012,08,06,08,49,128.00
2012,08,06,08,50,126.00
2012,08,06,08,51,127.00
2012,08,06,08,52,123.80
2012,08,06,08,53,117.70
2012,08,06,08,54,113.70
2012,08,06,08,55,113.40
2012,08,06,08,56,116.30
2012,08,06,08,57,118.00
2012,08,06,08,58,114.50
2012,08,06,08,59,112.70
2012,08,06,09,00,111.00
2012,08,06,09,01,111.00
2012,08,06,09,02,108.80
2012,08,06,09,03,105.50
2012,08,06,09,04,104.10
2012,08,06,09,05,99.60
2012,08,06,09,06,95.10
2012,08,06,09,07,90.50
2012,08,06,09,08,88.80
2012,08,06,09,09,84.90
2012,08,06,09,10,81.20
2012,08,06,09,11,79.00
2012,08,06,09,12,79.00
2012,08,06,09,13,80.00
2012,08,06,09,14,82.20
2012,08,06,09,15,90.60
2012,08,06,09,16,114.40
2012,08,06,09,17,127.60
2012,08,06,09,18,133.00
2012,08,06,09,19,143.30
2012,08,06,09,20,146.60
2012,08,06,09,21,154.00
2012,08,06,09,22,176.30
2012,08,06,09,23,183.80
2012,08,06,09,24,174.10
2012,08,06,09,25,170.80
2012,08,06,09,26,182.00
2012,08,06,09,27,191.50
2012,08,06,09,28,199.40
2012,08,06,09,29,196.00
2012,08,06,09,30,191.90
2012,08,06,09,31,189.00
2012,08,06,09,32,188.00
2012,08,06,09,33,192.00
2012,08,06,09,34,193.70
2012,08,06,09,35,181.80
2012,08,06,09,36,173.60
2012,08,06,09,37,191.50
2012,08,06,09,38,206.80
2012,08,06,09,39,215.00
2012,08,06,09,40,220.70
2012,08,06,09,41,226.30
2012,08,06,09,42,231.70
2012,08,06,09,43,232.90
2012,08,06,09,44,225.50
2012,08,06,09,45,212.70
2012,08,06,09,46,196.30
2012,08,06,09,47,190.80
2012,08,06,09,48,186.70
2012,08,06,09,49,180.70
2012,08,06,09,50,175.00
2012,08,06,09,51,180.80
2012,08,06,09,52,195.40
2012,08,06,09,53,185.00
2012,08,06,09,54,181.00
2012,08,06,09,55,184.20
2012,08,06,09,56,202.70
2012,08,06,09,57,234.90
2012,08,06,09,58,245.40
2012,08,06,09,59,238.10
2012,08,06,10,00,225.20
2012,08,06,10,01,222.20
2012,08,06,10,02,223.00
2012,08,06,10,03,221.80
2012,08,06,10,04,228.10
2012,08,06,10,05,232.80
2012,08,06,10,06,234.00
2012,08,06,10,07,237.50
2012,08,06,10,08,237.40
2012,08,06,10,09,236.70
2012,08,06,10,10,233.00
2012,08,06,10,11,229.60
2012,08,06,10,12,225.90
2012,08,06,10,13,221.70
2012,08,06,10,14,220.20
2012,08,06,10,15,219.40
2012,08,06,10,16,212.70
2012,08,06,10,17,193.80
2012,08,06,10,18,174.70
2012,08,06,10,19,160.00
2012,08,06,10,20,149.50
2012,08,06,10,21,144.00
2012,08,06,10,22,144.00
2012,08,06,10,23,145.80
2012,08,06,10,24,151.10
2012,08,06,10,25,155.20
2012,08,06,10,26,157.70
2012,08,06,10,27,167.80
2012,08,06,10,28,170.50
2012,08,06,10,29,166.10
2012,08,06,10,30,161.10
2012,08,06,10,31,160.00
2012,08,06,10,32,160.60
2012,08,06,10,33,175.30
2012,08,06,10,34,182.30
2012,08,06,10,35,186.50
2012,08,06,10,36,190.50
2012,08,06,10,37,192.80
2012,08,06,10,38,193.20
2012,08,06,10,39,197.40
2012,08,06,10,40,201.40
2012,08,06,10,41,209.50
2012,08,06,10,42,214.90
2012,08,06,10,43,216.00
2012,08,06,10,44,224.80
2012,08,06,10,45,226.60
2012,08,06,10,46,224.30
2012,08,06,10,47,221.50
2012,08,06,10,48,215.90
2012,08,06,10,49,207.40
2012,08,06,10,50,188.80
2012,08,06,10,51,188.50
2012,08,06,10,52,190.00
2012,08,06,10,53,190.00
2012,08,06,10,54,190.00
2012,08,06,10,55,186.60
2012,08,06,10,56,174.50
2012,08,06,10,57,174.50
2012,08,06,10,58,177.30
2012,08,06,10,59,179.00
2012,08,06,11,00,179.00
2012,08,06,11,01,182.30
2012,08,06,11,02,185.40
2012,08,06,11,03,181.90
2012,08,06,11,04,177.60
2012,08,06,11,05,174.80
2012,08,06,11,06,171.70
2012,08,06,11,07,177.60
2012,08,06,11,08,190.50
2012,08,06,11,09,192.70
2012,08,06,11,10,191.10
2012,08,06,11,11,187.70
2012,08,06,11,12,186.00
2012,08,06,11,13,187.70
2012,08,06,11,14,188.00
2012,08,06,11,15,185.80
2012,08,06,11,16,173.40
2012,08,06,11,17,158.60
2012,08,06,11,18,153.50
2012,08,06,11,19,156.20
2012,08,06,11,20,168.10
2012,08,06,11,21,168.90
2012,08,06,11,22,170.50
2012,08,06,11,23,184.50
2012,08,06,11,24,188.00
2012,08,06,11,25,198.10
2012,08,06,11,26,202.70
2012,08,06,11,27,206.40
2012,08,06,11,28,207.00
2012,08,06,11,29,197.50
2012,08,06,11,30,180.20
2012,08,06,11,31,179.40
2012,08,06,11,32,194.30
2012,08,06,11,33,196.30
2012,08,06,11,34,190.00
2012,08,06,11,35,186.00
2012,08,06,11,36,187.40
2012,08,06,11,37,205.20
2012,08,06,11,38,221.40
2012,08,06,11,39,235.00
2012,08,06,11,40,242.10
2012,08,06,11,41,248.00
2012,08,06,11,42,261.90
2012,08,06,11,43,284.90
2012,08,06,11,44,300.00
2012,08,06,11,45,311.30
2012,08,06,11,46,321.30
2012,08,06,11,47,322.90
2012,08,06,11,48,314.20
2012,08,06,11,49,302.00
2012,08,06,11,50,305.10
2012,08,06,11,51,317.30
2012,08,06,11,52,311.70
2012,08,06,11,53,282.70
2012,08,06,11,54,242.30
2012,08,06,11,55,196.20
2012,08,06,11,56,179.20
2012,08,06,11,57,167.50
2012,08,06,11,58,158.50
2012,08,06,11,59,164.90
2012,08,06,12,00,179.30
2012,08,06,12,01,171.30
2012,08,06,12,02,171.70
2012,08,06,12,03,182.70
2012,08,06,12,04,216.00
2012,08,06,12,05,259.60
2012,08,06,12,06,263.90
2012,08,06,12,07,256.80
2012,08,06,12,08,236.60
2012,08,06,12,09,194.50
2012,08,06,12,10,180.50
2012,08,06,12,11,192.40
2012,08,06,12,12,253.80
2012,08,06,12,13,270.70
2012,08,06,12,14,271.50
2012,08,06,12,15,292.00
2012,08,06,12,16,325.60
2012,08,06,12,17,357.00
2012,08,06,12,18,375.00
2012,08,06,12,19,351.90
2012,08,06,12,20,320.80
2012,08,06,12,21,302.50
2012,08,06,12,22,299.90
2012,08,06,12,23,313.00
2012,08,06,12,24,296.90
2012,08,06,12,25,283.00
2012,08,06,12,26,288.30
2012,08,06,12,27,292.10
2012,08,06,12,28,318.20
2012,08,06,12,29,337.40
2012,08,06,12,30,346.90
2012,08,06,12,31,357.40
2012,08,06,12,32,376.70
2012,08,06,12,33,387.10
2012,08,06,12,34,396.50
2012,08,06,12,35,423.50
2012,08,06,12,36,446.20
2012,08,06,12,37,429.60
2012,08,06,12,38,411.70
2012,08,06,12,39,408.00
2012,08,06,12,40,409.60
2012,08,06,12,41,403.40
2012,08,06,12,42,398.40
2012,08,06,12,43,411.00
2012,08,06,12,44,439.00
2012,08,06,12,45,465.00
2012,08,06,12,46,464.10
2012,08,06,12,47,444.30
2012,08,06,12,48,439.10
2012,08,06,12,49,431.00
2012,08,06,12,50,400.60
2012,08,06,12,51,417.40
2012,08,06,12,52,467.80
2012,08,06,12,53,483.30
2012,08,06,12,54,496.60
2012,08,06,12,55,529.70
2012,08,06,12,56,531.30
2012,08,06,12,57,490.30
2012,08,06,12,58,442.00
2012,08,06,12,59,440.10
2012,08,06,13,00,483.60
2012,08,06,13,01,502.30
2012,08,06,13,02,535.40
2012,08,06,13,03,558.40
2012,08,06,13,04,561.40
2012,08,06,13,05,655.40
2012,08,06,13,06,655.50
2012,08,06,13,07,671.00
2012,08,06,13,08,770.90
2012,08,06,13,09,818.50
2012,08,06,13,10,836.10
2012,08,06,13,11,808.00
2012,08,06,13,12,897.10
2012,08,06,13,13,962.20
2012,08,06,13,14,991.90
2012,08,06,13,15,976.00
2012,08,06,13,16,798.40
2012,08,06,13,17,835.80
2012,08,06,13,18,874.00
2012,08,06,13,19,898.80
2012,08,06,13,20,912.00
2012,08,06,13,21,740.80
2012,08,06,13,22,784.00
2012,08,06,13,23,825.80
2012,08,06,13,24,965.00
2012,08,06,13,25,965.00
2012,08,06,13,26,965.00
2012,08,06,13,27,965.00
2012,08,06,13,28,946.70
2012,08,06,13,29,754.80
2012,08,06,13,30,693.00
2012,08,06,13,31,627.50
2012,08,06,13,32,560.80
2012,08,06,13,33,531.60
2012,08,06,13,34,501.40
2012,08,06,13,35,460.00
2012,08,06,13,36,409.10
2012,08,06,13,37,384.00
2012,08,06,13,38,372.00
2012,08,06,13,39,364.90
2012,08,06,13,40,364.00
2012,08,06,13,41,364.80
2012,08,06,13,42,367.80
2012,08,06,13,43,371.40
2012,08,06,13,44,389.70
2012,08,06,13,45,440.60
2012,08,06,13,46,517.30
2012,08,06,13,47,525.30
2012,08,06,13,48,547.00
2012,08,06,13,49,560.00
2012,08,06,13,50,579.50
2012,08,06,13,51,656.80
2012,08,06,13,52,730.00
2012,08,06,13,53,791.30
2012,08,06,13,54,833.10
2012,08,06,13,55,834.90
2012,08,06,13,56,822.80
2012,08,06,13,57,791.80
2012,08,06,13,58,738.50
2012,08,06,13,59,700.00
2012,08,06,14,00,641.50
2012,08,06,14,01,568.80
2012,08,06,14,02,585.50
2012,08,06,14,03,595.70
2012,08,06,14,04,627.00
2012,08,06,14,05,566.00
2012,08,06,14,06,529.50
2012,08,06,14,07,548.30
2012,08,06,14,08,548.90
2012,08,06,14,09,570.10
2012,08,06,14,10,565.40
2012,08,06,14,11,503.10
2012,08,06,14,12,520.00
2012,08,06,14,13,564.50
2012,08,06,14,14,592.40
2012,08,06,14,15,562.00
2012,08,06,14,16,546.30
2012,08,06,14,17,526.20
2012,08,06,14,18,493.40
2012,08,06,14,19,437.20
2012,08,06,14,20,387.30
2012,08,06,14,21,352.80
2012,08,06,14,22,343.80
2012,08,06,14,23,345.60
2012,08,06,14,24,349.00
2012,08,06,14,25,359.00
2012,08,06,14,26,350.50
2012,08,06,14,27,344.30
2012,08,06,14,28,339.60
2012,08,06,14,29,342.60
2012,08,06,14,30,349.00
2012,08,06,14,31,352.00
2012,08,06,14,32,340.00
2012,08,06,14,33,322.00
2012,08,06,14,34,315.70
2012,08,06,14,35,309.80
2012,08,06,14,36,299.70
2012,08,06,14,37,295.50
2012,08,06,14,38,290.30
2012,08,06,14,39,286.60
2012,08,06,14,40,283.50
2012,08,06,14,41,280.00
2012,08,06,14,42,277.00
2012,08,06,14,43,276.00
2012,08,06,14,44,276.00
2012,08,06,14,45,276.50
2012,08,06,14,46,279.80
2012,08,06,14,47,286.50
2012,08,06,14,48,294.50
2012,08,06,14,49,301.10
2012,08,06,14,50,303.40
2012,08,06,14,51,297.60
2012,08,06,14,52,290.50
2012,08,06,14,53,285.20
2012,08,06,14,54,280.20
2012,08,06,14,55,274.70
2012,08,06,14,56,268.90
2012,08,06,14,57,263.60
2012,08,06,14,58,258.70
2012,08,06,14,59,256.00
2012,08,06,15,00,252.30
2012,08,06,15,01,250.10
2012,08,06,15,02,248.00
2012,08,06,15,03,248.00
2012,08,06,15,04,248.00
2012,08,06,15,05,249.10
2012,08,06,15,06,250.00
2012,08,06,15,07,250.00
2012,08,06,15,08,251.00
2012,08,06,15,09,251.60
2012,08,06,15,10,253.90
2012,08,06,15,11,256.10
2012,08,06,15,12,257.80
2012,08,06,15,13,259.70
2012,08,06,15,14,265.60
2012,08,06,15,15,270.00
2012,08,06,15,16,272.90
2012,08,06,15,17,275.30
2012,08,06,15,18,277.50
2012,08,06,15,19,278.00
2012,08,06,15,20,277.70
2012,08,06,15,21,275.50
2012,08,06,15,22,273.00
2012,08,06,15,23,270.20
2012,08,06,15,24,267.40
2012,08,06,15,25,265.10
2012,08,06,15,26,263.50
2012,08,06,15,27,260.50
2012,08,06,15,28,257.50
2012,08,06,15,29,254.50
2012,08,06,15,30,250.60
2012,08,06,15,31,246.20
2012,08,06,15,32,245.60
2012,08,06,15,33,244.80
2012,08,06,15,34,247.00
2012,08,06,15,35,250.00
2012,08,06,15,36,254.40
2012,08,06,15,37,261.60
2012,08,06,15,38,265.70
2012,08,06,15,39,278.90
2012,08,06,15,40,288.10
2012,08,06,15,41,298.80
2012,08,06,15,42,309.40
2012,08,06,15,43,321.00
2012,08,06,15,44,329.60
2012,08,06,15,45,337.80
2012,08,06,15,46,345.10
2012,08,06,15,47,353.00
2012,08,06,15,48,353.30
2012,08,06,15,49,353.00
2012,08,06,15,50,352.70
2012,08,06,15,51,348.80
2012,08,06,15,52,343.80
2012,08,06,15,53,345.30
2012,08,06,15,54,343.20
2012,08,06,15,55,336.40
2012,08,06,15,56,325.00
2012,08,06,15,57,318.00
2012,08,06,15,58,311.70
2012,08,06,15,59,308.30
2012,08,06,16,00,301.30
2012,08,06,16,01,293.10
2012,08,06,16,02,286.40
2012,08,06,16,03,279.80
2012,08,06,16,04,272.80
2012,08,06,16,05,264.20
2012,08,06,16,06,256.80
2012,08,06,16,07,248.50
2012,08,06,16,08,241.10
2012,08,06,16,09,234.50
2012,08,06,16,10,230.20
2012,08,06,16,11,227.40
2012,08,06,16,12,223.20
2012,08,06,16,13,221.00
2012,08,06,16,14,220.70
2012,08,06,16,15,219.00
2012,08,06,16,16,216.60
2012,08,06,16,17,216.00
2012,08,06,16,18,214.00
2012,08,06,16,19,213.00
2012,08,06,16,20,212.20
2012,08,06,16,21,211.00
2012,08,06,16,22,212.30
2012,08,06,16,23,213.00
2012,08,06,16,24,213.00
2012,08,06,16,25,213.00
2012,08,06,16,26,212.20
2012,08,06,16,27,209.90
2012,08,06,16,28,207.60
2012,08,06,16,29,206.10
2012,08,06,16,30,203.40
2012,08,06,16,31,199.70
2012,08,06,16,32,198.10
2012,08,06,16,33,194.70
2012,08,06,16,34,192.30
2012,08,06,16,35,190.10
2012,08,06,16,36,188.00
2012,08,06,16,37,188.00
2012,08,06,16,38,188.90
2012,08,06,16,39,191.20
2012,08,06,16,40,192.80
2012,08,06,16,41,196.80
2012,08,06,16,42,200.80
2012,08,06,16,43,204.70
2012,08,06,16,44,206.50
2012,08,06,16,45,208.30
2012,08,06,16,46,209.00
2012,08,06,16,47,209.00
2012,08,06,16,48,209.00
2012,08,06,16,49,209.00
2012,08,06,16,50,210.00
2012,08,06,16,51,211.00
2012,08,06,16,52,211.00
2012,08,06,16,53,212.90
2012,08,06,16,54,214.50
2012,08,06,16,55,216.70
2012,08,06,16,56,219.00
2012,08,06,16,57,220.70
2012,08,06,16,58,222.50
2012,08,06,16,59,224.90
2012,08,06,17,00,225.50
2012,08,06,17,01,227.00
2012,08,06,17,02,227.00
2012,08,06,17,03,228.30
2012,08,06,17,04,229.90
2012,08,06,17,05,230.30
2012,08,06,17,06,232.00
2012,08,06,17,07,232.90
2012,08,06,17,08,234.00
2012,08,06,17,09,235.40
2012,08,06,17,10,236.80
2012,08,06,17,11,237.60
2012,08,06,17,12,241.60
2012,08,06,17,13,242.10